Regional Weather Roundup
Issued by NWS Cleveland, OH

Home | Current Version | Previous Version | Text Only | Print | Product List | Glossary Off
Versions: 1 2 3 4 5 6 7 8 9 10 11 12 13 14 15 16 17 18 19 20 21 22 23 24 25 26 27 28 29 30 31 32 33 34 35 36 37 38 39 40 41 42 43 44 45 46 47 48 49 50

000
ASUS41 KCLE 171410
RWRCLE
OHIO REGIONAL WEATHER ROUNDUP
NATIONAL WEATHER SERVICE WILMINGTON, OH
900 AM EST SUN DEC 17 2017

NOTE: "FAIR" INDICATES FEW OR NO CLOUDS BELOW 12,000 FEET WITH NO
SIGNIFICANT WEATHER AND/OR OBSTRUCTIONS TO VISIBILITY.

OHZ001>008-015>018-024>027-034-035-043-044-171500-
   NORTHWEST OHIO

CITY           SKY/WX    TMP DP  RH WIND       PRES   REMARKS
DEFIANCE       FOG       30  28  92 E8        30.18R VSB 3/4 WCI  22
FINDLAY        FAIR      29  25  85 CALM      30.16R FOG
TOLEDO EXPRESS CLOUDY    30  29  96 E3        30.16S
TOLEDO EXEC    CLOUDY    31  28  89 NE5       30.18R FOG     WCI  26
LIMA           FAIR      35  29  78 S9        30.16R WCI  28
$$

OHZ009>014-019>023-028>033-038-089-171500-
   NORTHEAST OHIO

CITY           SKY/WX    TMP DP  RH WIND       PRES   REMARKS
CLE-HOPKINS    CLOUDY    27  25  92 S5        30.20R FOG     WCI  22
CLE-LAKEFRONT  FAIR      30  26  85 CALM      30.18R FOG
CUY CO. ARPT   CLOUDY    28  27  93 SE7       30.18F FOG     WCI  21
LORAIN-ELYRIA  FAIR      23  19  85 S5        30.18R FOG     WCI  17
ASHTABULA      FAIR      23  22  96 E3        30.20F
AKRON-CANTON   CLOUDY    31  26  82 S5        30.17R WCI  26
WOOSTER        FAIR      28  25  88 S3        30.18R
MANSFIELD      FAIR      34  29  82 S9        30.17R WCI  27
YOUNGSTOWN     CLOUDY    23  20  88 E5        30.17S FOG     WCI  17
$$

OHZ042-051>053-060>062-070>072-077>081-171500-
  SOUTHWEST OHIO

CITY           SKY/WX    TMP DP  RH WIND       PRES   REMARKS
CINC-COVINGTON CLOUDY    39  31  72 S8        30.18S
CINC-LUNKEN    FAIR      34  32  92 CALM      30.21S
HAMILTON       FAIR      37  31  78 E5        30.19S
DAYTON         CLOUDY    37  31  78 S9        30.17R
WRIGHT-PAT AFB FAIR      36  31  84 SE5       30.17S
DAYTON GENERAL FAIR      37  29  72 S9        30.16S
WILMINGTON     FAIR      35  30  82 S7        30.18S WCI  29
$$

OHZ036-037-039>041-045>050-054>059-063>069-073>076-082>088-171500-
  CENTRAL AND SOUTHEAST OHIO

CITY           SKY/WX    TMP DP  RH WIND       PRES   REMARKS
COLUMBUS       CLOUDY    35  29  78 CALM      30.21R
OSU AIRPORT    FAIR      34  30  85 S5        30.20R WCI  30
BOLTON FIELD   SUNNY     34  30  86 S6        30.21R WCI  29
RICKENBACK AFB FAIR      35  30  80 S6        30.21R
NEWARK         FAIR      29  27  92 CALM      30.21R
MARION         FAIR      33  28  81 S9        30.18R WCI  25
LANCASTER      FAIR      34  29  82 S3        30.22R
ZANESVILLE     FAIR      31  25  78 CALM      30.21R
NEW PHILLY     FAIR      29  26  89 S3        30.20S
$$




USA.gov is the U.S. government's official web portal to all federal, state and local government web resources and services.